Time,TemperatureF,DewpointF,PressureIn,WindDirection,WindDirectionDegrees,WindSpeedMPH,WindSpeedGustMPH,Humidity,HourlyPrecipIn,Conditions,Clouds,dailyrainin,SolarRadiationWatts/m^2,SoftwareType,DateUTC
2013-07-29 00:02:00,78.0,73.0,-100.00,SE,145,2.0,6.0,85,0.00,,,0.00,0.000000,,2013-07-29 05:02:00,
2013-07-29 00:22:00,78.0,74.0,-100.00,SE,146,3.0,5.0,89,0.00,,,0.00,0.000000,,2013-07-29 05:22:00,
2013-07-29 00:32:00,78.0,74.0,-100.00,SE,146,3.0,5.0,89,0.00,,,0.00,0.000000,,2013-07-29 05:32:00,
2013-07-29 00:43:00,78.0,74.0,-100.00,SE,146,3.0,5.0,89,0.00,,,0.00,0.000000,,2013-07-29 05:43:00,
2013-07-29 00:53:00,78.0,74.0,-100.00,SE,146,3.0,5.0,89,0.00,,,0.00,0.000000,,2013-07-29 05:53:00,
2013-07-29 01:02:00,78.0,74.0,-100.00,SE,146,3.0,5.0,89,0.00,,,0.00,0.000000,,2013-07-29 06:02:00,
2013-07-29 01:22:00,78.0,75.0,-100.00,SSE,153,3.0,6.0,90,0.00,,,0.00,0.000000,,2013-07-29 06:22:00,
2013-07-29 01:33:00,78.0,75.0,-100.00,SSE,153,3.0,6.0,90,0.00,,,0.00,0.000000,,2013-07-29 06:33:00,
2013-07-29 01:43:00,78.0,75.0,-100.00,SSE,153,3.0,6.0,90,0.00,,,0.00,0.000000,,2013-07-29 06:43:00,
2013-07-29 01:52:00,78.0,75.0,-100.00,SSE,153,3.0,6.0,90,0.00,,,0.00,0.000000,,2013-07-29 06:52:00,
2013-07-29 02:02:00,78.0,75.0,-100.00,SSE,153,3.0,6.0,90,0.00,,,0.00,0.000000,,2013-07-29 07:02:00,
2013-07-29 02:23:00,77.0,74.0,-100.00,SSE,148,2.0,6.0,92,0.00,,,0.00,0.000000,,2013-07-29 07:23:00,
2013-07-29 02:33:00,77.0,74.0,-100.00,SSE,148,2.0,6.0,92,0.00,,,0.00,0.000000,,2013-07-29 07:33:00,
2013-07-29 02:43:00,77.0,74.0,-100.00,SSE,148,2.0,6.0,92,0.00,,,0.00,0.000000,,2013-07-29 07:43:00,
2013-07-29 02:53:00,77.0,74.0,-100.00,SSE,148,2.0,6.0,92,0.00,,,0.00,0.000000,,2013-07-29 07:53:00,
2013-07-29 03:02:00,77.0,74.0,-100.00,SSE,148,2.0,6.0,92,0.00,,,0.00,0.000000,,2013-07-29 08:02:00,
2013-07-29 03:22:00,76.0,74.0,-100.00,SSE,152,3.0,6.0,93,0.00,,,0.00,0.000000,,2013-07-29 08:22:00,
2013-07-29 03:33:00,76.0,74.0,-100.00,SSE,152,3.0,6.0,93,0.00,,,0.00,0.000000,,2013-07-29 08:33:00,
2013-07-29 03:42:00,76.0,74.0,-100.00,SSE,152,3.0,6.0,93,0.00,,,0.00,0.000000,,2013-07-29 08:42:00,
2013-07-29 03:52:00,76.0,74.0,-100.00,SSE,152,3.0,6.0,93,0.00,,,0.00,0.000000,,2013-07-29 08:52:00,
2013-07-29 04:02:00,76.0,74.0,-100.00,SSE,152,3.0,6.0,93,0.00,,,0.00,0.000000,,2013-07-29 09:02:00,
2013-07-29 04:03:00,76.0,74.0,-100.00,SSE,163,3.0,5.0,95,0.00,,,0.00,0.000000,,2013-07-29 09:03:00,
2013-07-29 04:22:00,76.0,74.0,-100.00,SSE,163,3.0,5.0,95,0.00,,,0.00,0.000000,,2013-07-29 09:22:00,
2013-07-29 04:33:00,76.0,74.0,-100.00,SSE,163,3.0,5.0,95,0.00,,,0.00,0.000000,,2013-07-29 09:33:00,
2013-07-29 04:43:00,76.0,74.0,-100.00,SSE,163,3.0,5.0,95,0.00,,,0.00,0.000000,,2013-07-29 09:43:00,
2013-07-29 04:53:00,76.0,74.0,-100.00,SSE,163,3.0,5.0,95,0.00,,,0.00,0.000000,,2013-07-29 09:53:00,
2013-07-29 05:03:00,75.0,74.0,-100.00,South,170,2.0,4.0,97,0.00,,,0.00,0.000000,,2013-07-29 10:03:00,
2013-07-29 05:25:00,75.0,74.0,-100.00,South,170,2.0,4.0,97,0.00,,,0.00,0.000000,,2013-07-29 10:25:00,
2013-07-29 05:39:00,75.0,74.0,-100.00,South,170,2.0,4.0,97,0.00,,,0.00,0.000000,,2013-07-29 10:39:00,
2013-07-29 05:49:00,75.0,74.0,-100.00,South,170,2.0,4.0,97,0.00,,,0.00,0.000000,,2013-07-29 10:49:00,
2013-07-29 05:55:00,75.0,74.0,-100.00,South,170,2.0,4.0,97,0.00,,,0.00,0.000000,,2013-07-29 10:55:00,
2013-07-29 06:03:00,75.0,74.0,-100.00,South,179,2.0,4.0,97,0.00,,,0.00,0.000000,,2013-07-29 11:03:00,
2013-07-29 06:38:00,75.0,74.0,-100.00,South,179,2.0,4.0,97,0.00,,,0.00,0.000000,,2013-07-29 11:38:00,
2013-07-29 06:48:00,75.0,74.0,-100.00,South,179,2.0,4.0,97,0.00,,,0.00,0.000000,,2013-07-29 11:48:00,
2013-07-29 06:59:00,75.0,74.0,-100.00,South,179,2.0,4.0,97,0.00,,,0.00,0.000000,,2013-07-29 11:59:00,
2013-07-29 07:03:00,75.0,74.0,-100.00,SSE,162,3.0,6.0,98,0.00,,,0.00,7.000000,,2013-07-29 12:03:00,
2013-07-29 07:28:00,75.0,74.0,-100.00,SSE,162,3.0,6.0,98,0.00,,,0.00,7.000000,,2013-07-29 12:28:00,
2013-07-29 07:37:00,75.0,74.0,-100.00,SSE,162,3.0,6.0,98,0.00,,,0.00,7.000000,,2013-07-29 12:37:00,
2013-07-29 07:49:00,75.0,74.0,-100.00,SSE,162,3.0,6.0,98,0.00,,,0.00,7.000000,,2013-07-29 12:49:00,
2013-07-29 07:58:00,75.0,74.0,-100.00,SSE,162,3.0,6.0,98,0.00,,,0.00,7.000000,,2013-07-29 12:58:00,
2013-07-29 08:03:00,78.0,76.0,-100.00,SSE,153,3.0,5.0,93,0.00,,,0.00,106.000000,,2013-07-29 13:03:00,
2013-07-29 08:38:00,78.0,76.0,-100.00,SSE,153,3.0,5.0,93,0.00,,,0.00,106.000000,,2013-07-29 13:38:00,
2013-07-29 08:45:00,78.0,76.0,-100.00,SSE,153,3.0,5.0,93,0.00,,,0.00,106.000000,,2013-07-29 13:45:00,
2013-07-29 08:57:00,78.0,76.0,-100.00,SSE,153,3.0,5.0,93,0.00,,,0.00,106.000000,,2013-07-29 13:57:00,
2013-07-29 10:03:00,85.0,76.0,-100.00,SSW,197,4.0,12.0,74,-99.99,,,0.00,524.000000,,2013-07-29 15:03:00,
2013-07-29 10:25:00,85.0,76.0,-100.00,SSW,197,4.0,12.0,74,-99.99,,,0.00,524.000000,,2013-07-29 15:25:00,
2013-07-29 10:39:00,85.0,76.0,-100.00,SSW,197,4.0,12.0,74,-99.99,,,0.00,524.000000,,2013-07-29 15:39:00,
2013-07-29 10:46:00,85.0,76.0,-100.00,SSW,197,4.0,12.0,74,-99.99,,,0.00,524.000000,,2013-07-29 15:46:00,
2013-07-29 10:55:00,85.0,76.0,-100.00,SSW,197,4.0,12.0,74,-99.99,,,0.00,524.000000,,2013-07-29 15:55:00,
2013-07-29 11:03:00,87.0,73.0,-100.00,SSW,206,5.0,14.0,63,0.00,,,0.00,608.000000,,2013-07-29 16:03:00,
2013-07-29 11:47:00,87.0,73.0,-100.00,SSW,206,5.0,14.0,63,0.00,,,0.00,608.000000,,2013-07-29 16:47:00,
2013-07-29 11:57:00,87.0,73.0,-100.00,SSW,206,5.0,14.0,63,0.00,,,0.00,608.000000,,2013-07-29 16:57:00,
2013-07-29 14:03:00,92.0,71.0,-100.00,SSE,164,6.0,15.0,51,-99.99,,,0.00,963.000000,,2013-07-29 19:03:00,
2013-07-29 14:28:00,92.0,71.0,-100.00,SSE,164,6.0,15.0,51,-99.99,,,0.00,963.000000,,2013-07-29 19:28:00,
2013-07-29 14:48:00,92.0,71.0,-100.00,SSE,164,6.0,15.0,51,-99.99,,,0.00,963.000000,,2013-07-29 19:48:00,
2013-07-29 14:59:00,92.0,71.0,-100.00,SSE,164,6.0,15.0,51,-99.99,,,0.00,963.000000,,2013-07-29 19:59:00,
2013-07-29 15:03:00,94.0,70.0,-100.00,SSE,168,6.0,13.0,46,0.00,,,0.00,962.000000,,2013-07-29 20:03:00,
2013-07-29 15:38:00,94.0,70.0,-100.00,SSE,168,6.0,13.0,46,0.00,,,0.00,962.000000,,2013-07-29 20:38:00,
2013-07-29 15:49:00,94.0,70.0,-100.00,SSE,168,6.0,13.0,46,0.00,,,0.00,962.000000,,2013-07-29 20:49:00,
2013-07-29 15:58:00,94.0,70.0,-100.00,SSE,168,6.0,13.0,46,0.00,,,0.00,962.000000,,2013-07-29 20:58:00,
2013-07-29 16:03:00,96.0,69.0,-100.00,South,176,5.0,13.0,42,0.00,,,0.00,842.000000,,2013-07-29 21:03:00,
2013-07-29 16:25:00,96.0,69.0,-100.00,South,176,5.0,13.0,42,0.00,,,0.00,842.000000,,2013-07-29 21:25:00,
2013-07-29 16:37:00,96.0,69.0,-100.00,South,176,5.0,13.0,42,0.00,,,0.00,842.000000,,2013-07-29 21:37:00,
2013-07-29 16:49:00,96.0,69.0,-100.00,South,176,5.0,13.0,42,0.00,,,0.00,842.000000,,2013-07-29 21:49:00,
2013-07-29 17:00:00,96.0,69.0,-100.00,South,176,5.0,13.0,42,0.00,,,0.00,842.000000,,2013-07-29 22:00:00,
2013-07-29 17:03:00,96.0,68.0,-100.00,South,169,6.0,11.0,40,0.00,,,0.00,530.000000,,2013-07-29 22:03:00,
2013-07-29 17:26:00,96.0,68.0,-100.00,South,169,6.0,11.0,40,0.00,,,0.00,530.000000,,2013-07-29 22:26:00,
2013-07-29 17:39:00,96.0,68.0,-100.00,South,169,6.0,11.0,40,0.00,,,0.00,530.000000,,2013-07-29 22:39:00,
2013-07-29 17:47:00,96.0,68.0,-100.00,South,169,6.0,11.0,40,0.00,,,0.00,530.000000,,2013-07-29 22:47:00,
2013-07-29 17:57:00,96.0,68.0,-100.00,South,169,6.0,11.0,40,0.00,,,0.00,530.000000,,2013-07-29 22:57:00,
2013-07-29 18:03:00,96.0,68.0,-100.00,South,189,5.0,11.0,40,0.00,,,0.00,506.000000,,2013-07-29 23:03:00,
2013-07-29 18:27:00,96.0,68.0,-100.00,South,189,5.0,11.0,40,0.00,,,0.00,506.000000,,2013-07-29 23:27:00,
2013-07-29 18:57:00,96.0,68.0,-100.00,South,189,5.0,11.0,40,0.00,,,0.00,506.000000,,2013-07-29 23:57:00,
2013-07-29 19:28:00,93.0,70.0,-100.00,SSE,165,5.0,11.0,47,0.00,,,0.00,260.000000,,2013-07-30 00:28:00,
2013-07-29 19:35:00,93.0,70.0,-100.00,SSE,165,5.0,11.0,47,0.00,,,0.00,260.000000,,2013-07-30 00:35:00,
2013-07-29 19:51:00,93.0,70.0,-100.00,SSE,165,5.0,11.0,47,0.00,,,0.00,260.000000,,2013-07-30 00:51:00,
2013-07-29 19:56:00,93.0,70.0,-100.00,SSE,165,5.0,11.0,47,0.00,,,0.00,260.000000,,2013-07-30 00:56:00,
2013-07-29 20:03:00,88.0,71.0,-100.00,SSE,151,4.0,11.0,57,0.00,,,0.00,74.000000,,2013-07-30 01:03:00,
2013-07-29 20:24:00,88.0,71.0,-100.00,SSE,151,4.0,11.0,57,0.00,,,0.00,74.000000,,2013-07-30 01:24:00,
2013-07-29 20:38:00,88.0,71.0,-100.00,SSE,151,4.0,11.0,57,0.00,,,0.00,74.000000,,2013-07-30 01:38:00,
2013-07-29 21:00:00,88.0,71.0,-100.00,SSE,151,4.0,11.0,57,0.00,,,0.00,74.000000,,2013-07-30 02:00:00,
2013-07-29 21:03:00,85.0,71.0,-100.00,SSE,161,4.0,10.0,63,0.00,,,0.00,2.000000,,2013-07-30 02:03:00,
2013-07-29 21:26:00,85.0,71.0,-100.00,SSE,161,4.0,10.0,63,0.00,,,0.00,2.000000,,2013-07-30 02:26:00,
2013-07-29 21:39:00,85.0,71.0,-100.00,SSE,161,4.0,10.0,63,0.00,,,0.00,2.000000,,2013-07-30 02:39:00,
2013-07-29 21:56:00,85.0,71.0,-100.00,SSE,161,4.0,10.0,63,0.00,,,0.00,2.000000,,2013-07-30 02:56:00,
2013-07-29 22:03:00,83.0,69.0,-100.00,South,170,4.0,10.0,63,0.00,,,0.00,0.000000,,2013-07-30 03:03:00,
2013-07-29 22:36:00,83.0,69.0,-100.00,South,170,4.0,10.0,63,0.00,,,0.00,0.000000,,2013-07-30 03:36:00,
2013-07-29 22:48:00,83.0,69.0,-100.00,South,170,4.0,10.0,63,0.00,,,0.00,0.000000,,2013-07-30 03:48:00,
2013-07-29 22:56:00,83.0,69.0,-100.00,South,170,4.0,10.0,63,0.00,,,0.00,0.000000,,2013-07-30 03:56:00,
2013-07-29 23:03:00,81.0,69.0,-100.00,South,179,5.0,9.0,67,0.00,,,0.00,0.000000,,2013-07-30 04:03:00,
2013-07-29 23:23:00,81.0,69.0,-100.00,South,179,5.0,9.0,67,0.00,,,0.00,0.000000,,2013-07-30 04:23:00,
2013-07-29 23:33:00,81.0,69.0,-100.00,South,179,5.0,9.0,67,0.00,,,0.00,0.000000,,2013-07-30 04:33:00,
2013-07-29 23:43:00,81.0,69.0,-100.00,South,179,5.0,9.0,67,0.00,,,0.00,0.000000,,2013-07-30 04:43:00,
2013-07-29 23:53:00,81.0,69.0,-100.00,South,179,5.0,9.0,67,0.00,,,0.00,0.000000,,2013-07-30 04:53:00,